Weather in Tokma

Russia / Irkutsk Oblast     58°15′16″N   105°51′26″E
temp.,
°C
wind,
m/s
gust,
m/s
humid.,
%
clouds,
%
prec.,
mm/h
press.,
hPa
HPBL,
m
13 august, sat
sat1323:00+9ne118753 0.0 100910
02:00+10nne0085100 0.0 100910
05:00+7n119416 0.0 101014
08:00+10ene118412 0.0 1010224
11:00+16ssw125889 0.0 1009993
14:00+16w344970 0.3 10081647
17:00+17nnw244865 0.0 10071718
20:00+12n258126 0.5 100887
14 august, sun
sun1423:00+8ne119360 0.1 100911
02:00+9ne1191100 0.1 100842
05:00+6nnw11955 0.0 100810
08:00+11nw11825 0.0 1008238
11:00+16wnw125911 0.1 10071268
14:00+17nw134774 0.2 10051473
17:00+18wsw234026 0.0 10041991
20:00+14e1163100 0.0 100411
15 august, mon
mon1523:00+11ese2872100 0.0 1004180
02:00+11sse3988100 0.6 1002346
05:00+11s3998100 3.5 1000495
08:00+13sw5996100 3.9 1000876
11:00+15wsw7107894 0.6 10011193
14:00+13sw41083100 0.8 1002995
17:00+16wsw596839 0.3 10001507
20:00+12sw4990100 1.8 1000318
16 august, tue
tue1623:00+9wsw411948 0.0 1002629
02:00+8sw4119741 0.0 1002457
05:00+8wsw5109199 0.0 1002604
08:00+9wsw4985100 0.0 1003668
11:00+10wsw588271 0.2 1003842
14:00+13w5861100 0.8 10021617
17:00+13wsw466878 0.4 1002877
20:00+10wsw498944 1.4 1003474
17 august, wed
wed1723:00+6wsw399489 0.1 1004325
02:00+5sw4109690 0.1 1005433
05:00+7sw389297 0.1 1005513
08:00+7wsw4794100 0.4 1005980
11:00+7wsw4792100 0.3 10061087
14:00+7wsw3792100 0.5 1007882
17:00+7sw3792100 0.1 1007616
20:00+7sw389597 0.2 1008465